Location: Berg
(48.4333°N, 13.9167°E)
Time: 08:58:41
(UTC+00:00)

Lacrosse 4 Rocket - Pass Details

Date: 18 September 2020
Orbit: 543 x 615 km, 68.0° (Epoch: 24 October)

Event Time Altitude Azimuth Distance (km) Brightness Sun altitude
Rises 20:58:58 0° 328° (NNW) 2,717 5.9 -33.8°
Reaches altitude 10° 21:01:10 10° 331° (NNW) 1,823 4.8 -34.1°
Enters shadow 21:02:06 16° 333° (NNW) 1,456 4.1 -34.1°
